{"data":{"norad_id":47509,"epoch":"2026-09-20T13:50:54.674016Z","epoch_age_seconds":75699,"freshness":"FRESH","line1":"1 47509U 21006DA  26263.57702169  .00004280  00000+0  11382-3 0  9991","line2":"2 47509  97.2059 309.2242 0005315 163.6072 196.5346 15.38757024314510","mean_motion":15.38757024,"eccentricity":0.0005315,"inclination_deg":97.2059,"raan_deg":309.2242,"arg_perigee_deg":163.6072,"mean_anomaly_deg":196.5346,"bstar":0.00011382,"rev_number":31451,"period_min":93.582026112006,"perigee_km":446.15477321218,"apogee_km":453.41285303653,"semimajor_km":6827.9208131244,"source":"CELESTRAK","updated_at":"2026-09-21T09:00:07.526956Z"}}